Retour au catalogue

FENGYUN 1C DEB

ActifSSO
NORAD 31009·DEBRIS·🇨🇳 China

Lancé May 10, 1999 depuis Taiyuan Satellite Launch Center

Loading…

Prochains Passages (prochaines 24 heures)

TLE

FraisSource: Space-Track

Époque: Sep 14, 2026, 11:24 UTC

1 31009U 99025BDB 26257.47541633 -.00000106  00000-0 -41672-4 0  9996
2 31009  98.9151 251.2820 0054815 190.6634 321.9244 14.00568945997204

Suivez FENGYUN 1C DEB en temps réel avec AllMySat

Download on the App Store